Simultaneous Nadir Overpasses (SNOs) Predictions

Prediction of SNOs between GOES-16 and NOAA-19 Satellite Orbit:

Table of predicted SNOs for the next 14.0 days since TLE Epoch: 1/24/2025
Index Date Time (GOES-16) GOES-16 Lat,Lon NOAA-19 Lat,Lon Distance(km) Time Diff (sec)
1 01/26/2025 02:52:55 0.02, -75.18 -0.72, -78.47 375.45 80
2 01/27/2025 02:40:22 0.01, -75.18 -0.05, -75.42 27.55 80
3 01/28/2025 02:25:11 0.00, -75.19 0.68, -72.38 320.45 80
4 01/30/2025 14:43:55 -0.00, -75.24 0.39, -76.85 183.84 80
5 01/31/2025 14:34:04 -0.00, -75.25 -0.33, -73.81 164.63 80
6 02/03/2025 02:53:00 -0.00, -75.24 -0.68, -78.33 351.20 80
7 02/04/2025 02:40:27 -0.00, -75.26 0.02, -75.28 3.14 80
8 02/05/2025 02:25:15 0.00, -75.27 0.71, -72.23 346.85 80
9 02/07/2025 14:44:02 0.00, -75.34 0.30, -76.71 156.02 80
